Погода в Хилкове

Россия / Самарская область     53°28′29″N   50°56′28″E
темп.,
°C
ветер,
м/с
пор.,
м/с
влажн.,
%
обл.,
%
осадки,
мм/ч
давл.,
гПа
погр.,
м
28 сентября, вт
вт2801:00+4св6982100 0.0 1017695
04:00+4св51078100 0.0 1018715
07:00+3ссв611785 0.0 1020620
10:00+6св796133 0.0 1020967
13:00+9св784873 0.0 10211526
16:00+10св793959 0.0 10221836
19:00+6ссв5115097 0.0 1024338
22:00+6ссв51155100 0.0 1025402
29 сентября, ср
ср2901:00+4ссв41064100 0.0 1026294
04:00+3с4970100 0.0 1027263
07:00+3ссв497235 0.0 1028292
10:00+7св57515 0.0 10281114
13:00+9св563973 0.0 10281826
16:00+10ссв673697 0.0 10271982
19:00+6с355491 0.0 102866
22:00+4ссв33625 0.0 102937
30 сентября, чт
чт3001:00+3с22655 0.0 102917
04:00+2с22685 0.0 102913
07:00+1с22715 0.0 103014
10:00+7с22515 0.0 1030507
13:00+10ссз334377 0.0 10301613
16:00+10ссз4444100 0.0 10291766
19:00+8ссз2450100 0.0 1030116
22:00+7зсз2569100 0.0 1030180
1 октября, пт
пт101:00+7з3774100 0.1 1030304
04:00+8зсз4781100 0.1 1029399
07:00+7зсз4787100 0.1 1030380
10:00+9зсз4578100 0.1 1030363
13:00+11зсз346881 0.0 1030707
16:00+12зсз3464100 0.0 1030902
19:00+11зюз2371100 0.0 103066
22:00+11з3673100 0.0 1031150
2 октября, сб
сб201:00+10зсз2574100 0.0 1031118
04:00+10зсз2476100 0.0 1031115
07:00+9сз258040 0.0 1031175
10:00+12ссз346723 0.0 1032494
13:00+15ссз335215 0.0 10311331
16:00+15ссз334925 0.0 10311445
19:00+11с22675 0.0 103220
22:00+9с22725 0.0 103217